Location: Aalen
(48.8330°N, 10.1000°E)
Time: 18:54:40
(UTC+02:00)

UNISAT 6 - Pass Details

Date: 02 April 2023
Orbit: 599 x 680 km, 97.7° (Epoch: 04 June)

Event Time Altitude Azimuth Distance (km) Brightness Sun altitude
Rises 20:59:53 0° 356° (N) 3,053 ? -11.7°
Reaches altitude 10° 21:04:03 10° 319° (NW) 2,135 ? -12.3°
Maximum altitude 21:05:04 11° 306° (NW) 2,087 ? -12.5°
Drops below altitude 10° 21:06:06 10° 293° (WNW) 2,132 ? -12.6°
Sets 21:10:15 0° 257° (WSW) 3,035 ? -13.2°
